KLM994 EDDE-ENGM

Flight info

Callsign KLM994
Flight time N/A
Altitude 29998
Route LASTO1D LASTO M726 GARGU DCT MEGAR DCT SABAK L997 REGMA DCT LUNIP
Aircraft A20N/M-SDE2E3FGHIRWXY/LB1

Departure

Time 2026-05-09 13:56
Airport Erfurt-Weimar Airport (EDDE)

Arrival

Time N/A
Airport Oslo-Gardermoen International Airport (ENGM)
Time Latitude Longitude Altitude Speed Heading
2026-05-09 13:37 50.97549 10.96315 1039 ft 0 kts 97°
2026-05-09 13:49 50.97548 10.96340 1038 ft 4 kts 97°
2026-05-09 13:49 50.97550 10.96381 1038 ft 6 kts 65°
2026-05-09 13:49 50.97581 10.96407 1038 ft 7 kts 13°
2026-05-09 13:50 50.97672 10.96428 1038 ft 10 kts 10°
2026-05-09 13:50 50.97710 10.96505 1038 ft 9 kts 89°
2026-05-09 13:50 50.97705 10.96604 1037 ft 8 kts 96°
2026-05-09 13:50 50.97698 10.96695 1037 ft 9 kts 96°
2026-05-09 13:51 50.97689 10.96832 1036 ft 17 kts 96°
2026-05-09 13:51 50.97679 10.97030 1035 ft 19 kts 89°
2026-05-09 13:51 50.97696 10.97249 1034 ft 21 kts 82°
2026-05-09 13:51 50.97718 10.97419 1033 ft 4 kts 66°
2026-05-09 13:52 50.97718 10.97420 1033 ft 1 kts 65°
2026-05-09 13:52 50.97728 10.97452 1033 ft 3 kts 62°
2026-05-09 13:52 50.97740 10.97481 1032 ft 3 kts 53°
2026-05-09 13:52 50.97754 10.97505 1032 ft 3 kts 47°
2026-05-09 13:53 50.97762 10.97520 1032 ft 0 kts 47°
2026-05-09 13:53 50.97764 10.97522 1032 ft 1 kts 47°
2026-05-09 13:53 50.97766 10.97527 1032 ft 0 kts 47°
2026-05-09 13:54 50.97767 10.97527 1032 ft 0 kts 47°
2026-05-09 13:54 50.97767 10.97528 1032 ft 0 kts 47°
2026-05-09 13:54 50.97768 10.97530 1032 ft 1 kts 47°
2026-05-09 13:54 50.97777 10.97543 1031 ft 5 kts 40°
2026-05-09 13:55 50.97839 10.97525 1030 ft 15 kts 301°
2026-05-09 13:55 50.97864 10.97247 1034 ft 53 kts 277°
2026-05-09 13:55 50.97957 10.96199 1038 ft 136 kts 278°
2026-05-09 13:55 50.98159 10.94426 1338 ft 174 kts 284°
2026-05-09 13:56 50.98359 10.92551 2342 ft 173 kts 279°
2026-05-09 13:56 50.98505 10.90602 2899 ft 186 kts 277°
2026-05-09 13:56 50.98654 10.88441 3216 ft 208 kts 277°
2026-05-09 13:56 50.98818 10.86043 3607 ft 228 kts 277°
2026-05-09 13:57 50.99003 10.83404 4021 ft 253 kts 276°
2026-05-09 13:57 50.99208 10.80549 4718 ft 265 kts 276°
2026-05-09 13:57 50.99577 10.77667 5631 ft 271 kts 294°
2026-05-09 13:57 51.00803 10.75399 6533 ft 278 kts 327°
2026-05-09 13:58 51.02658 10.74545 7409 ft 284 kts 360°
2026-05-09 13:58 51.04604 10.75099 8328 ft 288 kts 24°
2026-05-09 13:58 51.06193 10.77033 9221 ft 292 kts 48°
2026-05-09 13:58 51.07403 10.79645 10118 ft 296 kts 58°
2026-05-09 13:59 51.08387 10.82572 10763 ft 309 kts 62°
2026-05-09 13:59 51.09434 10.85697 11085 ft 332 kts 61°
2026-05-09 13:59 51.10571 10.89032 11450 ft 351 kts 64°
2026-05-09 13:59 51.11400 10.92727 12131 ft 359 kts 77°
2026-05-09 14:00 51.11792 10.96671 12888 ft 363 kts 82°
2026-05-09 14:00 51.12009 10.99315 13399 ft 365 kts 83°
2026-05-09 14:00 51.12848 11.04569 14359 ft 370 kts 65°
2026-05-09 14:00 51.14211 11.08058 15018 ft 373 kts 49°
2026-05-09 14:01 51.16138 11.10826 15706 ft 375 kts 32°
2026-05-09 14:01 51.18471 11.12670 16395 ft 376 kts 17°
2026-05-09 14:01 51.21022 11.13607 17073 ft 378 kts
2026-05-09 14:01 51.23610 11.14404 17760 ft 381 kts
2026-05-09 14:02 51.26217 11.15209 18429 ft 384 kts
2026-05-09 14:02 51.28820 11.16017 19009 ft 386 kts 10°
2026-05-09 14:02 51.31458 11.16838 19608 ft 388 kts
2026-05-09 14:02 51.34129 11.17670 20202 ft 390 kts 10°
2026-05-09 14:03 51.36800 11.18504 20778 ft 393 kts 10°
2026-05-09 14:03 51.39484 11.19345 21351 ft 395 kts 10°
2026-05-09 14:03 51.42194 11.20197 21909 ft 397 kts 10°
2026-05-09 14:03 51.44913 11.21050 22449 ft 400 kts 10°
2026-05-09 14:04 51.47650 11.21910 22986 ft 402 kts 10°
2026-05-09 14:04 51.50411 11.22780 23524 ft 405 kts 10°
2026-05-09 14:04 51.53184 11.23656 24011 ft 407 kts 10°
2026-05-09 14:04 51.55964 11.24534 24467 ft 409 kts 10°
2026-05-09 14:05 51.58765 11.25424 24925 ft 411 kts 10°
2026-05-09 14:05 51.61575 11.26320 25367 ft 413 kts 10°
2026-05-09 14:05 51.64405 11.27101 25805 ft 414 kts
2026-05-09 14:05 51.67268 11.27716 26242 ft 416 kts
2026-05-09 14:06 51.70147 11.28227 26673 ft 417 kts
2026-05-09 14:06 51.73043 11.28700 27103 ft 419 kts
2026-05-09 14:06 51.75950 11.29183 27540 ft 421 kts
2026-05-09 14:06 51.78872 11.29697 27963 ft 423 kts
2026-05-09 14:07 51.81801 11.30244 28361 ft 424 kts
2026-05-09 14:07 51.84735 11.30817 28745 ft 426 kts
2026-05-09 14:07 51.87684 11.31408 29131 ft 428 kts
2026-05-09 14:07 51.90653 11.32005 29498 ft 430 kts
2026-05-09 14:08 51.93625 11.32598 29859 ft 432 kts
2026-05-09 14:08 51.96625 11.33189 30143 ft 434 kts
2026-05-09 14:08 52.02516 11.34345 30190 ft 421 kts
2026-05-09 14:09 52.08320 11.35472 30183 ft 419 kts
2026-05-09 14:09 52.14122 11.36617 30188 ft 421 kts
2026-05-09 14:10 52.22888 11.37923 30197 ft 422 kts
2026-05-09 14:11 52.28800 11.38166 30188 ft 433 kts
2026-05-09 14:11 52.34935 11.38327 30188 ft 446 kts
2026-05-09 14:12 52.41146 11.38531 30185 ft 447 kts
2026-05-09 14:12 52.47322 11.38777 30189 ft 447 kts
2026-05-09 14:13 52.53648 11.39042 30185 ft 456 kts
2026-05-09 14:15 52.79124 11.40024 30549 ft 459 kts
2026-05-09 14:15 52.82349 11.40156 30956 ft 457 kts
2026-05-09 14:15 52.85487 11.40285 31348 ft 456 kts
2026-05-09 14:15 52.88691 11.40421 31737 ft 454 kts
2026-05-09 14:16 52.91817 11.40549 32119 ft 453 kts
2026-05-09 14:16 52.94957 11.40671 32501 ft 452 kts
2026-05-09 14:16 52.98101 11.40790 32885 ft 450 kts
2026-05-09 14:16 53.01230 11.40912 33269 ft 449 kts
2026-05-09 14:17 53.04350 11.41035 33646 ft 448 kts
2026-05-09 14:17 53.07460 11.41158 34028 ft 447 kts